User: anonymous   Login
Location: Ladysmith
(45.4630°N, 91.1040°W)
Time: 18:03:16
(UTC-05:00)
Language:

SO-67 - Orbit

View from above orbital plane
View from above orbital plane
View from above satellite
View from above satellite

Ground track
Ground track

The orbit data is extracted from the following two-line orbital elements,

1 35870U 09049F   15089.47033632  .00016303  00000-0  41236-3 0  9998
2 35870 097.1423 107.5741 0003367 113.9753 015.6291 15.39839874307993
Epoch (UTC): 30 March 2015 11:17:17
Eccentricity: 0.0003367
inclination: 97.1423°
perigee height: 444 km
apogee height: 449 km
right ascension of ascending node: 107.5741°
argument of perigee: 113.9753°
revolutions per day: 15.39839874
mean anomaly at epoch: 15.6291°
orbit number at epoch: 30799

The dashed part of the orbit path shows where the satellite is in the earth's shadow,  

DLR